Weather History for Fairbanks, AK

Change the Weather History Date:

Friday, April 13, 2012

  Actual Average Record
Temperature  
Mean Temperature 42 °F 31 °F  
Max Temperature 53 °F 43 °F 57 °F (1995)
Min Temperature 31 °F 19 °F -23 °F (1992)
Degree Days  
Heating Degree Days 23 34  
Month to date heating degree days 477 504  
Since 1 July heating degree days 12894 12554  
Cooling Degree Days 0 0  
Month to date cooling degree days 0 0  
Year to date cooling degree days 0 0  
Moisture  
Dew Point 24 °F    
Average Humidity 54    
Maximum Humidity 73    
Minimum Humidity 21    
Precipitation  
Precipitation 0.00 in 0.01 in 0.31 in (1965)
Month to date precipitation T 0.10  
Year to date precipitation 1.85 1.35  
Snow  
Snow 0.00 in 0.10 in 4.70 in (1965)
Month to date snowfall T 1.6  
Since 1 July snowfall 57.4 62.8  
Snow Depth 18.00 in    
Sea Level Pressure  
Sea Level Pressure 29.93 in    
Wind  
Wind Speed 7 mph (NNE)    
Max Wind Speed 13 mph    
Max Gust Speed -    
Visibility 10 miles    
Events      
T = Trace of Precipitation, MM = Missing Value Source: NWS Daily Summary

Daily Weather History Graph

Daily Weather History Graph

Search for Another Location

Airport:

Trip Planner

Search our weather history database for the weather conditions in past years. The results will help you decide how hot, cold, wet, or windy it might be!

Date:

Astronomy

Apr. 13, 2012 Rise Set
Actual Time 6:21 AM AKDT 9:24 PM AKDT
Civil Twilight 5:25 AM AKDT 10:21 PM AKDT
Nautical Twilight 4:02 AM AKDT 11:46 PM AKDT
Astronomical Twilight 2:24 AM AKDT 1:19 AM AKDT
Moon 4:55 AM AKDT (4/13) 11:45 AM AKDT (4/13)
Length of Visible Light 16h 56m
Length of Day
15h 02m
Last Quarter, 46% of the Moon is Illuminated
Apr 13
Last Quarter
Apr 20
New
Apr 29
First Quarter
May 5
Full
May 12
Last Quarter

Hourly Weather History & Observations

Time (AKDT) Temp. Windchill Dew Point Humidity Pressure Visibility Wind Dir Wind Speed Gust Speed Precip Events Conditions
12:53 AM 37.9 °F 31.5 °F 24.1 °F 57% 29.91 in 10.0 mi North 9.2 mph - N/A   Mostly Cloudy
1:53 AM 37.0 °F 31.0 °F 23.0 °F 57% 29.92 in 10.0 mi North 8.1 mph - N/A   Mostly Cloudy
2:53 AM 36.0 °F 30.3 °F 23.0 °F 59% 29.92 in 10.0 mi North 6.9 mph - N/A   Mostly Cloudy
3:53 AM 33.1 °F 26.9 °F 23.0 °F 66% 29.94 in 10.0 mi NNE 6.9 mph - N/A   Mostly Cloudy
4:53 AM 32.0 °F 26.4 °F 24.1 °F 73% 29.94 in 10.0 mi NE 5.8 mph - N/A   Mostly Cloudy
5:53 AM 33.1 °F 28.7 °F 24.1 °F 70% 29.94 in 10.0 mi North 4.6 mph - N/A   Mostly Cloudy
6:53 AM 35.1 °F 30.1 °F 23.0 °F 61% 29.95 in 10.0 mi NNE 5.8 mph - N/A   Mostly Cloudy
7:53 AM 33.1 °F 26.9 °F 24.1 °F 70% 29.96 in 10.0 mi NE 6.9 mph - N/A   Mostly Cloudy
8:53 AM 34.0 °F 31.0 °F 25.0 °F 70% 29.96 in 10.0 mi ESE 3.5 mph - N/A   Mostly Cloudy
9:53 AM 35.1 °F 30.1 °F 24.1 °F 64% 29.96 in 10.0 mi SE 5.8 mph - N/A   Mostly Cloudy
10:53 AM 37.0 °F 33.3 °F 24.1 °F 59% 29.96 in 10.0 mi SSE 4.6 mph - N/A   Mostly Cloudy
11:53 AM 37.9 °F 35.5 °F 24.1 °F 57% 29.96 in 10.0 mi South 3.5 mph - N/A   Mostly Cloudy
12:53 PM 43.0 °F - 23.0 °F 45% 29.96 in 10.0 mi Calm Calm - N/A   Mostly Cloudy
1:53 PM 46.0 °F - 23.0 °F 40% 29.95 in 10.0 mi Calm Calm - N/A   Mostly Cloudy
2:53 PM 50.0 °F - 23.0 °F 35% 29.93 in 10.0 mi Calm Calm - N/A   Scattered Clouds
3:53 PM 51.1 °F - 23.0 °F 33% 29.91 in 10.0 mi Calm Calm - N/A   Scattered Clouds
4:53 PM 50.0 °F - 25.0 °F 38% 29.91 in 10.0 mi North 10.4 mph - N/A   Scattered Clouds
5:53 PM 46.9 °F - 26.1 °F 44% 29.91 in 10.0 mi NE 11.5 mph - N/A   Mostly Cloudy
6:53 PM 43.0 °F 36.4 °F 28.0 °F 56% 29.91 in 10.0 mi NE 12.7 mph - N/A   Mostly Cloudy
7:53 PM 44.1 °F 37.7 °F 26.1 °F 49% 29.91 in 10.0 mi North 12.7 mph - N/A   Mostly Cloudy
8:53 PM 42.1 °F 35.7 °F 26.1 °F 53% 29.92 in 10.0 mi North 11.5 mph - N/A   Mostly Cloudy
9:53 PM 39.0 °F 32.8 °F 26.1 °F 60% 29.92 in 10.0 mi North 9.2 mph - N/A   Mostly Cloudy
10:53 PM 39.0 °F 32.3 °F 24.1 °F 55% 29.92 in 10.0 mi North 10.4 mph - N/A   Mostly Cloudy
11:53 PM 37.9 °F 31.5 °F 24.1 °F 57% 29.93 in 10.0 mi North 9.2 mph - N/A   Mostly Cloudy